Regional Weather Roundup
Issued by NWS Kansas City/Pleasant Hill, MO

Home | Current Version | Previous Version | Graphics & Text | Print | Product List | Glossary Off
Versions: 1 2 3 4 5 6 7 8 9 10 11 12 13 14 15 16 17 18 19 20 21 22 23 24 25 26 27

000
ASUS43 KEAX 021710
RWREAX

WEATHER ROUNDUP FOR EASTERN KANSAS AND NORTHWEST MISSOURI
NATIONAL WEATHER SERVICE KANSAS CITY/PLEASANT HILL MO
1100 AM CST FRI DEC 02 2016

KSZ040-057-103>105-MOZ028-029-037-043-021800-
...KANSAS CITY METROPOLITAN AREA...

CITY           SKY/WX    TMP DP  RH WIND       PRES   REMARKS
K.C. INTL      MOSUNNY   43  27  53 NE5       30.28S
K.C. DOWNTOWN  SUNNY     43  30  60 CALM      30.29R
LEES SUMMIT    SUNNY     45  28  51 NE3       30.28R
OLATHE - IXD   SUNNY     45  27  49 CALM      30.29R
OLATHE - OJC   SUNNY     45  26  47 NE6       30.28R
LAWRENCE       SUNNY     41  32  70 CALM      30.30R

$$

MOZ001>008-011>017-020>025-030>033-038>040-044>046-053-054-021800-
...NORTHERN AND CENTRAL MISSOURI...

CITY           SKY/WX    TMP DP  RH WIND       PRES   REMARKS
ST. JOSEPH     SUNNY     38  29  70 CALM      30.30S
MOSBY          SUNNY     41  32  70 N3        30.29F
WARRENSBURG    SUNNY     43  28  56 CALM      30.28F
WHITEMAN AFB   MOSUNNY   45  27  49 NE6       30.27R
CLINTON        SUNNY     46  28  49 CALM      30.28S
SEDALIA        SUNNY     46  28  49 N7        30.28S
WARSAW         NOT AVBL
CHILLICOTHE      N/A     40  31  70 SW5       30.31R
KIRKSVILLE     SUNNY     41  31  67 NW8       30.28R

$$

MOZ041-047>049-056>058-063>065-088>090-097-021800-
...EASTERN AND SOUTHERN MISSOURI...

CITY           SKY/WX    TMP DP  RH WIND       PRES   REMARKS
ST. LOUIS INTL MOSUNNY   44  29  55 NW10      30.27F
SPIRIT OF STL  MOSUNNY   46  30  53 N9        30.27F
COLUMBIA       SUNNY     43  28  55 NW7       30.27S
JEFFERSON CITY SUNNY     42  30  62 W7        30.29R
ROLLA          SUNNY     47  27  45 MISG      30.25S
OSAGE BEACH    SUNNY     49  25  39 CALM      30.28S
SPRINGFIELD    SUNNY     52  22  30 NE7       30.25R
BRANSON        MOSUNNY   50  28  43 SE5       30.26R
JOPLIN         SUNNY     52  25  35 E9        30.25R
WEST PLAINS    SUNNY     49  27  42 NE7       30.27S

$$

IAZ060-094-KSZ022-034>040-054-083-096-NEZ052-066-093-021800-
...KANSAS...SOUTHEAST NEBRASKA AND IOWA...

CITY           SKY/WX    TMP DP  RH WIND       PRES   REMARKS
TOPEKA         SUNNY     42  29  59 CALM      30.31R
MANHATTAN      SUNNY     40  28  62 E3        30.30R
EMPORIA        SUNNY     45  25  45 CALM      30.27R
CHANUTE        SUNNY     52  23  32 SE10      30.26R
WICHITA        CLOUDY    45  28  51 NE6       30.25R
OMAHA          MOSUNNY   39  30  70 N8        30.28S WCI  33
LINCOLN        SUNNY     38  29  70 N5        30.30R WCI  34
FALLS CITY     SUNNY     38  30  73 CALM      30.30R
LAMONI         MOSUNNY   40  31  70 NW7       30.26R
DES MOINES     CLOUDY    39  32  76 NW7       30.27R WCI  34

$$





USA.gov is the U.S. government's official web portal to all federal, state and local government web resources and services.